Location: Castiglione Fibocchi
(43.5333°N, 11.7667°E)
Time: 18:19:44
(UTC+00:00)

CZ-2C R/B - Pass Details

Date: 15 August 2020
Orbit: 668 x 784 km, 98.2° (Epoch: 17 September)

Event Time Altitude Azimuth Distance (km) Brightness Sun altitude
Rises 02:47:11 0° 20° (NNE) 3,029 6.6 -15.3°
Reaches altitude 10° 02:49:31 10° 28° (NNE) 2,117 5.8 -14.9°
Maximum altitude 02:53:53 41° 98° (E) 991 3.5 -14.3°
Drops below altitude 10° 02:58:19 10° 169° (S) 2,150 4.6 -13.6°
Sets 03:00:42 0° 177° (S) 3,081 5.3 -13.3°
